This is the latest recevied weather packets stored in our database for station/object KO6LQJ. If no packets are shown the sender has not sent any weather packets the latest 10 day(s).
| Time | Temp. | Humidity | Pressure | Rain* | Wind** | Luminosity | Snow |
|---|---|---|---|---|---|---|---|
| 1777593810 | 22.78° C | 53% | 1011.9 hPa | 0 mm | - | 58 W/m² | - |
| 1777593506 | 22.78° C | 52% | 1012.2 hPa | 0 mm | - | 54 W/m² | - |
| 1777593201 | 22.78° C | 53% | 1012.1 hPa | 0 mm | - | 188 W/m² | - |
| 1777592900 | 23.33° C | 51% | 1012.1 hPa | 0 mm | - | 61 W/m² | - |
| 1777592596 | 23.89° C | 50% | 1011.7 hPa | 0 mm | - | 62 W/m² | - |
| 1777592293 | 23.89° C | 50% | 1012.1 hPa | 0 mm | - | 61 W/m² | - |
| 1777591988 | 23.89° C | 51% | 1012.1 hPa | 0 mm | - | 61 W/m² | - |
| 1777591684 | 24.44° C | 49% | 1012 hPa | 0 mm | - | 62 W/m² | - |
| 1777591380 | 24.44° C | 49% | 1012 hPa | 0 mm | - | 72 W/m² | - |
| 1777591076 | 23.89° C | 49% | 1012 hPa | 0 mm | - | 65 W/m² | - |
| 1777590772 | 23.89° C | 49% | 1012.1 hPa | 0 mm | - | 67 W/m² | - |
| 1777590468 | 23.89° C | 49% | 1012 hPa | 0 mm | - | 69 W/m² | - |
| 1777590165 | 23.89° C | 49% | 1012.2 hPa | 0 mm | - | 81 W/m² | - |
| 1777589862 | 24.44° C | 48% | 1012.2 hPa | 0 mm | - | 74 W/m² | - |
| 1777589557 | 24.44° C | 48% | 1012.2 hPa | 0 mm | - | 72 W/m² | - |
| 1777589256 | 24.44° C | 48% | 1012 hPa | 0 mm | - | 72 W/m² | - |
| 1777588953 | 23.89° C | 50% | 1012.2 hPa | 0 mm | - | 287 W/m² | - |
| 1777588648 | 23.89° C | 49% | 1012.1 hPa | 0 mm | - | 499 W/m² | - |
| 1777588344 | 24.44° C | 48% | 1012.1 hPa | 0 mm | - | 143 W/m² | - |
| 1777588040 | 24.44° C | 48% | 1012.2 hPa | 0 mm | - | 80 W/m² | - |
| 1777587736 | 24.44° C | 48% | 1012.3 hPa | 0 mm | - | 82 W/m² | - |
| 1777587436 | 24.44° C | 47% | 1012.5 hPa | 0 mm | - | 99 W/m² | - |
| 1777587133 | 25° C | 47% | 1012.2 hPa | 0 mm | - | 88 W/m² | - |
| 1777586828 | 25.56° C | 46% | 1012.5 hPa | 0 mm | - | 231 W/m² | - |
| 1777586524 | 25° C | 47% | 1012.3 hPa | 0 mm | - | 155 W/m² | - |
* Rain latest hour (hover to see other rain measurements)
** Current wind speed in m/s (hover to see current wind gust speed)